Wind_Speed
13 17 24 22 20 19 17 16 15 12 11 9 9 9 9 10 11 11 9 8 8 8 8 8 8 6 7 7 8 8 9 11 13 14 10 10 11 11 14 11 9 12 12
15 17 26 23 21 18 16 14 14 13 11 10 10 10 8 8 9 11 9 7 5 5 4 4 3 5 6 4 6 6 7 8 11 12 11 9 8 8 8 8 9 9 11
17 17 26 24 22 20 18 16 14 13 13 11 10 9 9 8 9 10 8 6 7 5 4 4 5 5 4 4 3 4 5 6 9 9 5 4 4 5 7 7 8 8 8
19 19 27 24 23 21 19 18 17 17 15 13 14 11 10 9 8 8 9 7 6 5 3 3 3 3 2 2 2 3 4 5 7 8 5 5 0 5 5 6 7 7 7
18 18 27 27 25 23 20 19 18 17 15 15 13 11 11 10 10 9 9 10 6 4 3 2 1 1 1 2 1 1 3 5 7 6 3 4 6 6 5 5 5 5 5
18 17 21 25 27 25 23 20 19 17 17 16 16 15 13 12 11 9 8 7 7 7 3 2 2 2 2 3 3 2 3 5 6 6 7 0 5 6 5 4 2 5 6
16 18 19 22 26 25 25 23 21 19 18 18 18 16 15 15 10 8 8 9 8 8 4 3 4 3 2 1 3 3 6 7 6 7 5 3 2 4 5 5 5 5 4
16 18 18 22 24 25 25 24 22 21 20 19 20 18 17 13 12 8 8 8 9 8 6 5 4 2 2 3 5 6 8 8 6 7 4 3 4 4 3 2 2 2 2
14 19 19 19 24 28 25 24 24 23 21 20 22 21 19 17 15 11 10 10 9 7 7 6 5 5 5 4 5 6 8 7 5 10 6 2 4 3 2 2 2 2 2
13 17 20 19 21 31 30 28 26 25 23 22 24 23 20 17 17 13 13 13 10 9 9 9 7 6 5 5 6 6 7 5 5 5 4 2 5 2 2 2 2 2 2
14 18 20 22 21 26 28 29 28 27 25 24 26 24 22 19 18 15 14 14 12 12 11 10 9 7 5 4 5 5 5 4 3 4 2 2 2 2 2 3 1 1 1
19 22 24 25 25 24 24 23 25 27 26 27 27 26 23 19 17 15 14 15 14 15 13 12 11 8 6 4 4 4 3 4 2 3 2 2 2 2 1 1 2 3 4
25 25 27 26 26 25 26 24 25 27 27 29 29 28 24 20 18 15 16 16 17 18 16 14 13 10 8 6 5 5 4 4 1 2 2 2 2 2 2 3 4 2 2
21 24 27 27 27 27 26 27 24 26 30 27 29 28 27 23 21 23 23 21 21 21 18 17 14 12 12 11 9 7 6 5 4 2 2 2 3 5 4 4 4 4 5
17 20 22 29 29 29 30 28 28 26 26 33 27 29 31 29 26 26 25 22 23 22 21 19 17 16 14 12 10 8 7 5 4 3 1 3 5 6 5 5 5 6 6
20 21 20 23 29 30 30 31 29 29 26 26 32 29 31 32 30 29 27 24 24 24 23 23 21 19 16 14 12 10 8 7 6 5 2 2 5 8 6 5 6 7 6
17 15 17 20 23 29 30 29 30 26 27 27 28 29 30 30 29 28 27 27 26 25 25 24 20 18 17 15 13 11 10 8 7 7 6 4 6 7 10 7 8 9 7
22 13 8 15 19 23 27 26 25 25 24 26 26 27 29 32 30 28 29 30 28 27 27 24 22 20 19 17 14 12 10 9 8 7 8 9 7 11 12 15 14 11 8
22 18 14 4 15 19 20 22 21 21 21 22 21 24 26 31 31 27 29 30 30 30 30 28 26 24 21 17 13 11 9 9 9 9 10 13 13 12 13 13 12 11 11
25 21 15 13 8 7 13 14 17 17 19 19 20 20 23 25 29 28 28 29 31 32 31 30 29 26 24 21 17 13 10 9 9 10 11 14 14 15 14 15 13 11 11
31 29 27 21 14 3 1 7 10 10 10 15 14 17 19 21 26 30 27 27 31 35 35 33 29 28 24 22 18 8 8 10 11 11 12 13 14 14 15 13 13 12 12
26 29 30 27 20 16 5 5 2 1 5 8 14 15 15 18 21 27 29 26 30 33 33 33 33 30 23 31 12 9 2 5 13 16 17 16 15 15 15 14 14 13 14
30 30 30 27 25 20 13 7 3 1 2 3 2 7 11 15 15 20 26 28 27 32 34 34 37 36 28 35 24 10 3 5 4 13 19 19 18 18 17 17 17 17 18
27 28 29 27 25 20 16 15 12 11 8 7 4 5 8 11 19 18 23 27 28 30 35 37 39 40 33 29 31 28 9 8 4 3 14 20 20 21 20 20 20 19 23
26 27 26 28 29 24 20 15 13 12 12 10 10 5 5 8 13 19 19 23 28 28 32 33 37 40 38 35 32 26 26 15 9 4 4 10 22 24 22 22 20 21 24
25 26 27 26 27 26 26 22 17 13 12 12 12 12 10 9 10 13 16 21 23 28 29 32 33 38 41 39 38 34 28 15 15 6 3 3 10 23 30 28 26 26 28
Wind_Direction
161 177 178 177 172 166 168 169 168 166 163 158 152 150 143 138 133 131 131 135 127 116 109 97 89 78 66 63 71 77 81 83 84 97 91 84 87 93 89 90 76 72 65
169 184 181 181 176 173 177 178 175 169 164 165 162 154 150 144 145 143 146 158 153 133 116 117 134 143 95 87 79 92 93 97 99 99 89 67 72 82 93 92 76 76 74
169 184 182 183 180 176 179 178 174 170 173 170 171 163 162 147 142 154 161 152 153 136 116 137 106 111 105 88 84 89 99 106 114 105 72 87 71 61 72 76 77 74 77
171 188 182 185 185 184 184 183 183 181 179 176 172 170 171 165 159 161 158 156 178 155 130 133 116 120 107 101 82 106 113 106 106 95 80 95 34 80 75 66 72 75 68
171 193 186 186 187 190 191 189 188 185 180 179 181 187 187 183 182 183 179 168 170 185 175 140 122 279 301 285 269 189 143 124 117 86 129 125 106 84 77 78 65 88 70
177 187 190 194 189 192 195 196 194 192 187 187 195 190 186 181 192 197 204 181 181 215 182 200 263 270 282 288 283 251 158 140 116 136 104 351 120 90 87 83 93 71 64
182 184 198 203 199 200 200 200 200 202 200 195 201 198 193 194 204 232 185 176 177 199 202 224 250 274 274 110 99 108 137 136 140 144 137 164 159 124 86 95 98 110 111
188 190 206 204 209 204 207 208 208 209 206 201 203 200 198 202 206 209 179 175 177 184 178 192 230 207 155 111 103 109 117 123 127 131 148 207 150 110 117 141 153 147 150
199 199 203 214 212 208 210 216 216 216 212 207 208 207 206 204 216 211 193 187 181 176 172 194 190 171 159 128 117 117 120 126 134 122 159 175 168 79 80 186 195 196 206
203 213 208 220 217 210 212 215 219 219 217 215 214 211 208 215 217 217 204 196 188 180 178 180 178 178 160 143 139 131 130 134 117 125 210 204 120 77 66 138 188 203 214
216 214 213 211 220 215 217 220 219 221 222 220 214 214 216 220 224 222 212 208 196 187 180 181 179 186 163 149 141 137 144 130 139 156 260 205 136 72 48 63 129 195 201
220 220 216 213 210 214 213 217 220 217 216 213 212 216 223 223 235 223 217 204 201 199 189 182 191 186 173 143 136 133 137 129 155 183 267 197 140 99 49 72 93 101 110
227 222 218 218 216 213 210 212 219 218 213 213 213 220 220 221 222 215 215 210 201 204 199 189 199 179 170 180 193 185 166 154 185 229 305 218 169 102 109 109 119 121 111
242 230 221 220 217 216 215 213 217 217 213 216 219 216 221 221 214 213 214 214 208 209 207 210 204 193 198 196 198 193 177 177 191 212 294 215 177 130 136 132 126 127 127
238 241 230 221 215 214 216 215 215 216 218 219 219 220 220 215 210 212 212 216 211 211 204 209 207 203 202 198 196 195 188 190 182 187 272 139 154 136 147 144 137 129 121
252 241 239 229 222 215 214 215 217 214 216 218 219 217 219 215 211 215 214 212 205 211 201 210 210 205 202 198 195 196 195 192 188 171 161 143 151 153 135 142 149 145 130
270 252 228 231 228 218 218 219 217 220 216 220 213 214 216 211 211 216 214 203 203 206 207 212 210 205 202 200 203 205 206 203 199 193 179 148 168 165 142 126 140 144 151
15 358 245 229 229 228 222 224 224 221 224 222 220 217 216 213 212 214 212 208 206 207 210 208 204 200 204 202 204 203 208 207 207 200 180 158 190 181 181 165 161 152 135
24 21 19 309 223 227 229 226 229 227 227 226 225 222 219 213 212 214 212 212 209 209 210 207 203 206 200 197 200 202 211 217 212 202 188 192 194 201 196 191 186 183 171
26 23 26 24 20 232 227 230 232 232 226 229 224 227 226 218 216 213 212 212 210 210 210 207 206 204 204 194 187 195 201 220 213 207 206 214 213 210 212 209 205 200 192
27 32 30 30 23 32 197 226 230 237 234 230 229 230 234 228 217 216 216 213 212 214 214 209 204 198 189 186 158 165 191 210 218 215 218 224 219 216 221 219 211 202 189
34 32 32 34 36 43 31 56 111 75 218 235 226 232 237 241 225 217 219 217 216 215 216 211 202 189 187 188 169 136 176 235 227 212 216 219 227 220 221 218 210 201 188
33 35 36 36 36 33 32 41 64 265 10 338 342 247 239 240 237 228 224 223 222 221 221 216 209 201 189 192 199 162 145 211 150 210 216 213 220 223 223 220 217 203 198
40 43 41 38 39 40 46 41 32 44 44 10 320 256 254 256 246 239 232 231 229 229 224 224 217 213 201 194 202 216 219 159 161 169 208 217 221 226 222 220 219 208 204
38 43 45 46 41 36 39 45 42 44 39 21 21 354 317 274 262 257 246 244 234 239 233 229 222 217 212 210 203 211 220 211 195 143 179 198 216 224 226 229 223 212 205
40 37 38 38 43 38 35 36 33 35 50 44 18 3 337 305 293 272 276 256 253 246 243 233 233 226 222 219 224 215 209 194 207 180 136 178 201 210 211 218 222 220 208
Height
799 799 802 806 809 813 816 818 820 823 825 826 828 830 831 832 833 834 835 836 837 838 839 840 841 841 841 840 840 841 842 842 843 844 845 845 846 846 845 845 845 844 844
796 799 801 805 808 812 815 818 820 822 825 826 828 830 832 833 834 835 836 837 839 839 839 840 841 841 841 841 841 841 843 844 844 846 847 847 848 848 847 845 846 845 846
795 797 801 804 807 810 814 817 820 823 825 827 828 830 832 833 835 836 837 838 839 840 840 840 841 842 842 842 843 843 844 845 845 847 848 849 849 849 848 847 847 847 847
793 795 799 803 806 809 812 816 818 821 824 826 828 830 832 834 835 837 838 838 839 840 840 841 841 842 842 843 843 844 845 846 846 847 848 850 849 849 848 849 849 849 848
795 794 797 800 804 808 811 814 817 819 822 825 827 830 832 833 835 837 838 839 840 840 840 841 841 842 842 842 843 844 845 846 847 849 849 849 849 849 849 849 850 850 849
794 796 798 800 802 805 809 813 816 818 821 824 826 828 829 832 833 835 836 838 839 840 840 841 841 841 841 841 842 844 845 846 847 848 850 848 849 849 850 850 849 850 850
794 796 796 800 803 806 807 810 813 816 819 822 824 826 828 830 831 832 834 836 837 838 839 840 840 840 841 841 842 843 844 846 846 848 849 848 849 849 850 850 851 850 851
792 795 797 799 802 805 807 810 812 814 817 820 821 824 826 828 829 830 833 834 836 836 838 838 838 839 840 841 842 844 844 846 846 847 847 848 849 849 849 850 851 850 851
792 793 795 796 799 802 805 808 810 813 815 817 820 822 824 826 827 828 830 832 834 835 837 837 838 838 840 841 842 843 844 846 845 847 847 847 848 849 848 849 850 850 851
790 791 793 793 794 797 800 803 806 809 812 815 817 819 821 824 824 825 828 830 831 833 835 836 837 839 840 841 842 842 843 845 845 846 846 847 847 849 849 848 849 849 850
788 788 788 790 791 793 796 799 802 806 809 812 815 817 819 821 822 823 826 828 830 831 833 835 836 837 839 841 841 842 842 843 845 845 845 846 846 848 848 847 848 849 849
783 783 783 785 787 790 793 796 798 802 805 808 812 814 817 819 821 822 824 827 829 830 832 834 835 837 838 840 841 842 842 843 844 844 845 845 846 847 847 847 848 849 849
775 776 780 784 787 789 791 794 796 798 802 804 807 810 814 816 818 820 823 825 827 828 830 833 833 836 837 839 840 840 842 843 843 843 843 844 844 846 847 847 848 849 850
772 773 774 777 782 786 788 791 792 795 799 803 805 807 811 813 816 817 819 821 824 827 829 830 833 835 837 838 839 840 841 842 843 842 843 843 844 845 847 847 848 849 850
767 770 771 771 774 779 784 786 789 791 793 797 802 804 806 809 812 814 817 819 822 824 826 829 831 833 835 836 838 839 840 841 842 843 843 843 844 846 847 847 848 849 850
763 764 768 769 770 774 778 781 783 787 790 792 796 799 801 804 807 810 814 816 819 821 825 826 828 831 833 834 836 837 838 839 840 842 842 843 844 845 846 847 848 849 850
759 759 762 766 768 770 774 778 781 783 787 789 791 795 797 800 803 807 811 814 817 820 823 826 828 830 831 833 834 835 836 837 838 839 840 841 842 844 845 847 848 848 849
759 761 760 762 767 769 773 776 779 782 785 788 790 792 794 797 800 803 807 811 814 816 818 822 825 828 829 831 832 834 835 836 837 838 839 840 840 841 842 844 845 846 848
763 760 759 761 762 766 770 774 777 780 783 786 789 791 792 794 798 801 803 807 810 812 814 817 821 824 826 829 831 833 834 835 836 837 837 838 839 839 841 842 843 844 846
767 764 761 761 764 765 768 773 776 778 780 783 786 789 791 793 796 798 801 804 806 807 810 813 816 820 822 824 827 829 832 834 835 835 836 837 838 839 839 840 841 842 844
776 769 767 765 766 766 768 771 774 776 779 781 784 787 790 791 793 797 798 801 802 803 805 809 812 815 818 823 827 831 831 831 831 833 834 835 835 836 838 839 840 840 842
779 778 774 770 769 769 771 772 773 774 777 779 782 785 787 790 791 794 796 798 800 801 804 805 807 811 815 816 818 825 832 832 829 829 830 831 833 835 835 836 838 840 840
782 780 778 777 775 774 775 774 773 773 776 779 781 783 785 786 789 792 794 796 796 798 800 803 804 804 805 809 810 812 824 825 826 828 829 829 829 831 832 834 834 837 837
789 788 786 785 782 780 778 778 779 777 777 779 780 782 785 786 787 787 790 793 794 794 795 796 799 800 802 803 808 807 806 805 814 825 824 826 827 827 828 829 831 833 834
798 792 790 790 792 792 788 784 783 780 777 778 780 782 782 782 785 789 789 789 790 790 792 794 794 795 796 796 797 800 804 805 804 807 816 814 818 820 824 827 828 830 832
799 799 798 796 790 793 795 793 792 788 778 777 780 782 782 781 781 783 785 787 788 788 786 789 791 791 790 792 792 793 793 797 798 799 805 809 806 808 810 814 819 823 827